This demonstration page uses our WeatherBlox Daily Observations layout. Learn more.

Left ArrowRight Arrow

Hourly Observations for February 13, 2020

Temp ( °F °C ) Dew Point ( °F °C ) Humidity (%) Winds ( mph kmh ) Pressure ( in mb ) Visibility ( mi km ) Precip ( " mm )
12:52 am 00:52 Cloudy 32 0 31 -0.6 96 96 NW 15 24 29.98 1015 10 16 0.00 0.00
1:52 am 01:52 Cloudy 32 0 31 -0.6 96 96 NNW 15 24 30.00 1016 10 16 0.00 0.00
2:52 am 02:52 Cloudy with Mist and Fog 32 0 31 -0.6 96 96 NNW 13 20 30.02 1017 5 8 0.00 0.00
3:11 am 03:11 Cloudy with Light Snow 32 0 31 -0.6 96 96 NW 12 19 30.06 1018 2 3 0.00 0.00
3:18 am 03:18 Cloudy with Light Snow 32 0 31 -0.6 96 96 NW 18 30 30.07 1018 2 2 0.00 0.00
3:25 am 03:25 Cloudy with Light Snow 31 -0.6 30 -1.1 96 96 NW 16 26 30.08 1018 3 5 0.00 0.00
3:41 am 03:41 Cloudy with Mist and Fog 30 -1.1 29 -1.7 96 96 NW 15 24 30.09 1019 5 8 0.00 0.00
3:52 am 03:52 Cloudy with Mist and Fog 29 -1.7 28 -2.2 96 96 NW 20 31 30.06 1018 4 6 0.00 0.00
4:52 am 04:52 Cloudy 25 -3.9 24 -4.4 96 96 NNW 17 28 30.12 1020 10 16 0.00 0.00
5:52 am 05:52 Cloudy 23 -5 21 -6.1 92 92 NNW 21 33 30.17 1022 10 16 0.00 0.00
6:00 am 06:00 Cloudy 23 -5 21 -6.1 92 92 N 18 30 30.24 1024 10 16 0.00 0.00
6:19 am 06:19 Cloudy 22 -5.6 20 -6.7 92 92 NNW 17 28 30.26 1025 10 16 0.00 0.00
6:52 am 06:52 Cloudy 21 -6.1 19 -7.2 92 92 N 17 28 30.22 1023 10 16 0.00 0.00
7:36 am 07:36 Cloudy 19 -7.2 16 -8.9 88 88 NW 17 28 30.31 1027 10 16 0.00 0.00
7:52 am 07:52 Cloudy 18 -7.8 15 -9.4 88 88 NW 18 30 30.27 1025 10 16 0.00 0.00
8:41 am 08:41 Cloudy 16 -8.9 12 -11.1 84 84 NNW 18 30 30.39 1029 9 14 0.00 0.00
8:52 am 08:52 Cloudy with Light Snow 18 -7.8 14 -10 84 84 NW 15 24 30.33 1027 6 10 0.00 0.00
9:22 am 09:22 Partly Cloudy 16 -8.9 10 -12.2 77 77 NNW 20 31 30.41 1030 10 16 0.00 0.00
9:52 am 09:52 Sunny 16 -8.9 9 -12.8 74 74 NNW 21 33 30.37 1028 10 16 0.00 0.00
10:52 am 10:52 Sunny 18 -7.8 12 -11.1 77 77 N 16 26 30.37 1029 10 16 0.00 0.00
11:52 am 11:52 Sunny 20 -6.7 12 -11.1 71 71 N 14 22 30.38 1029 10 16 0.00 0.00
12:52 pm 12:52 Sunny 20 -6.7 10 -12.2 65 65 NNW 20 31 30.38 1029 10 16 0.00 0.00
1:52 pm 13:52 Sunny 22 -5.6 11 -11.7 63 63 NNW 13 20 30.37 1029 10 16 0.00 0.00
2:52 pm 14:52 Sunny 22 -5.6 8 -13.3 55 55 N 16 26 30.37 1029 10 16 0.00 0.00
3:52 pm 15:52 Sunny 23 -5 10 -12.2 57 57 N 14 22 30.40 1029 10 16 0.00 0.00
4:52 pm 16:52 Sunny 21 -6.1 8 -13.3 57 57 NNE 9 15 30.42 1030 10 16 0.00 0.00
5:52 pm 17:52 Clear 17 -8.3 4 -15.6 56 56 NNW 12 19 30.44 1031 10 16 0.00 0.00
6:52 pm 18:52 Clear 16 -8.9 3 -16.1 56 56 N 13 20 30.47 1032 10 16 0.00 0.00
7:52 pm 19:52 Clear 14 -10 4 -15.6 64 64 N 13 20 30.49 1033 10 16 0.00 0.00
8:52 pm 20:52 Clear 13 -10.6 4 -15.6 67 67 N 9 15 30.50 1033 10 16 0.00 0.00
9:52 pm 21:52 Clear 12 -11.1 3 -16.1 67 67 N 8 13 30.53 1034 10 16 0.00 0.00
10:52 pm 22:52 Clear 11 -11.7 4 -15.6 73 73 N 6 9 30.55 1035 10 16 0.00 0.00
11:52 pm 23:52 Clear 10 -12.2 3 -16.1 73 73 NNE 8 13 30.55 1035 10 16 0.00 0.00

Powered by AerisWeather